SENTINEL-5P (42969 NORAD) Tracking and Keplerian Element Data

This shows tracking and keplerian element data for the satellite.

Feedback or suggestion? Click here.




ElementValue
Catalog42969
NameSENTINEL-5P
Epoch Orbit7439
Epoch Day80.82503467
Epoch Year2019
RAAN21.4864
Inclination98.7288
Eccentricity0.0001021
Argument of Perigee84.1936
Mean Anonmoly275.9356
Mean Motion14.1955423
Decay Rate-3E-07
L11 42969U 17064A 19080.82503467 -.00000030 00000-0 66648-5 0 9990
L22 42969 98.7288 21.4864 0001021 84.1936 275.9356 14.19554230 74398

Live tracking and technical data element details for SENTINEL-5P (NORAD 42969). SENTINEL-5P can be tracked NOW for your location showing map with azimuth and elevation plus other details from your city location.

Track the satellite on the map from your city or location and see movement details for azimuth, elevation, latitude, longitude, range, height, and movement on the map or in text.







IsCatalogInMostPopularTable: catalog: 42969, numindb: 207
Update: records affected: 1



GetName: 42969 SENTINEL-5P

Hit Count: updated at: Sat, 23 Mar 2019 02:41:43 GMT